Time,TemperatureF,DewpointF,PressureIn,WindDirection,WindDirectionDegrees,WindSpeedMPH,WindSpeedGustMPH,Humidity,HourlyPrecipIn,Conditions,Clouds,dailyrainin,SolarRadiationWatts/m^2,SoftwareType,DateUTC
2013-05-24 00:01:00,52.9,43.4,29.65,North,0,1.4,0.0,70,0.00,CLR,,0.00,0.0,WeatherDisplay:10.37,2013-05-23 22:01:00,
2013-05-24 00:06:00,52.9,43.4,29.65,North,0,1.2,0.0,70,0.00,CLR,,0.00,0.0,WeatherDisplay:10.37,2013-05-23 22:06:00,
2013-05-24 00:11:00,52.9,43.4,29.65,North,0,0.0,0.0,70,0.00,CLR,,0.00,0.0,WeatherDisplay:10.37,2013-05-23 22:11:00,
2013-05-24 00:16:00,52.9,43.7,29.65,NNW,338,1.2,0.0,71,0.00,CLR,,0.00,0.0,WeatherDisplay:10.37,2013-05-23 22:16:00,
2013-05-24 00:21:00,52.9,43.7,29.65,NNW,338,1.2,1.2,71,0.00,CLR,,0.00,0.0,WeatherDisplay:10.37,2013-05-23 22:21:00,
2013-05-24 00:26:00,52.9,43.7,29.65,NNW,338,2.4,0.0,71,0.00,CLR,,0.00,0.0,WeatherDisplay:10.37,2013-05-23 22:26:00,
2013-05-24 00:31:00,52.9,43.7,29.65,NW,315,2.6,2.6,71,0.00,CLR,,0.00,0.0,WeatherDisplay:10.37,2013-05-23 22:31:00,
2013-05-24 00:36:00,52.7,43.6,29.65,WNW,292,2.9,0.0,71,0.00,CLR,,0.00,0.0,WeatherDisplay:10.37,2013-05-23 22:36:00,
2013-05-24 00:41:00,52.9,43.7,29.65,NW,315,2.3,2.3,71,0.00,CLR,,0.00,0.0,WeatherDisplay:10.37,2013-05-23 22:41:00,
2013-05-24 00:46:00,52.9,43.7,29.65,WNW,292,1.2,1.4,71,0.00,CLR,,0.00,0.0,WeatherDisplay:10.37,2013-05-23 22:46:00,
2013-05-24 00:51:00,52.9,44.1,29.65,NNE,22,2.3,2.3,72,0.00,CLR,,0.00,0.0,WeatherDisplay:10.37,2013-05-23 22:51:00,
2013-05-24 00:56:00,52.9,44.1,29.65,WNW,292,2.3,2.3,72,0.00,CLR,,0.00,0.0,WeatherDisplay:10.37,2013-05-23 22:56:00,
2013-05-24 01:01:00,52.7,43.9,29.65,WNW,292,3.5,3.5,72,0.00,CLR,,0.00,0.0,WeatherDisplay:10.37,2013-05-23 23:01:00,
2013-05-24 01:06:00,52.7,43.9,29.65,WNW,292,2.3,2.3,72,0.00,CLR,,0.00,0.0,WeatherDisplay:10.37,2013-05-23 23:06:00,
2013-05-24 01:11:00,52.7,43.9,29.65,WNW,292,3.5,3.5,72,0.00,CLR,,0.00,0.0,WeatherDisplay:10.37,2013-05-23 23:11:00,
2013-05-24 01:16:00,52.7,43.9,29.65,NW,315,3.5,3.5,72,0.00,CLR,,0.00,0.0,WeatherDisplay:10.37,2013-05-23 23:16:00,
2013-05-24 01:21:00,52.7,43.9,29.65,NNW,338,2.3,2.3,72,0.00,CLR,,0.00,0.0,WeatherDisplay:10.37,2013-05-23 23:21:00,
2013-05-24 01:26:00,52.7,43.9,29.65,NW,315,2.3,2.3,72,0.00,CLR,,0.00,0.0,WeatherDisplay:10.37,2013-05-23 23:26:00,
2013-05-24 01:31:00,52.7,44.3,29.65,WNW,292,0.0,0.0,73,0.00,CLR,,0.00,0.0,WeatherDisplay:10.37,2013-05-23 23:31:00,
2013-05-24 01:36:00,52.5,44.1,29.65,NNW,338,2.3,2.3,73,0.00,CLR,,0.00,0.0,WeatherDisplay:10.37,2013-05-23 23:36:00,
2013-05-24 01:41:00,52.5,44.1,29.65,WNW,292,1.2,1.4,73,0.00,CLR,,0.00,0.0,WeatherDisplay:10.37,2013-05-23 23:41:00,
2013-05-24 01:46:00,52.5,44.1,29.65,WNW,292,2.3,2.3,73,0.00,CLR,,0.00,0.0,WeatherDisplay:10.37,2013-05-23 23:46:00,
2013-05-24 01:51:00,52.3,43.9,29.65,NNW,338,4.6,4.6,73,0.00,CLR,,0.00,0.0,WeatherDisplay:10.37,2013-05-23 23:51:00,
2013-05-24 01:56:00,52.3,43.9,29.65,WNW,292,2.3,2.3,73,0.00,CLR,,0.00,0.0,WeatherDisplay:10.37,2013-05-23 23:56:00,
2013-05-24 02:01:00,52.3,43.9,29.65,WNW,292,2.3,2.3,73,0.00,CLR,,0.00,0.0,WeatherDisplay:10.37,2013-05-24 00:01:00,
2013-05-24 02:06:00,52.3,43.9,29.65,NNW,338,3.5,3.5,73,0.00,CLR,,0.00,0.0,WeatherDisplay:10.37,2013-05-24 00:06:00,
2013-05-24 02:11:00,52.2,43.8,29.65,NNE,22,2.3,2.3,73,0.00,CLR,,0.00,0.0,WeatherDisplay:10.37,2013-05-24 00:11:00,
2013-05-24 02:16:00,52.2,43.8,29.65,NNE,22,1.2,1.2,73,0.00,CLR,,0.00,0.0,WeatherDisplay:10.37,2013-05-24 00:16:00,
2013-05-24 02:21:00,52.2,43.8,29.65,NNW,338,1.2,1.2,73,0.00,CLR,,0.00,0.0,WeatherDisplay:10.37,2013-05-24 00:21:00,
2013-05-24 02:26:00,52.2,43.8,29.65,NNE,22,2.3,2.3,73,0.00,CLR,,0.00,0.0,WeatherDisplay:10.37,2013-05-24 00:26:00,
2013-05-24 02:31:00,52.0,43.6,29.62,NNE,22,1.2,1.2,73,0.00,CLR,,0.00,0.0,WeatherDisplay:10.37,2013-05-24 00:31:00,
2013-05-24 02:36:00,52.0,43.6,29.62,NNW,338,2.3,2.3,73,0.00,CLR,,0.00,0.0,WeatherDisplay:10.37,2013-05-24 00:36:00,
2013-05-24 02:41:00,52.0,43.6,29.62,WNW,292,2.3,2.3,73,0.00,CLR,,0.00,0.0,WeatherDisplay:10.37,2013-05-24 00:41:00,
2013-05-24 02:46:00,52.0,43.6,29.65,NW,315,3.5,3.5,73,0.00,CLR,,0.00,0.0,WeatherDisplay:10.37,2013-05-24 00:46:00,
2013-05-24 02:51:00,51.8,43.4,29.65,WNW,292,3.5,3.5,73,0.00,CLR,,0.00,0.0,WeatherDisplay:10.37,2013-05-24 00:51:00,
2013-05-24 02:56:00,51.8,43.4,29.65,NNW,338,3.5,3.5,73,0.00,CLR,,0.00,0.0,WeatherDisplay:10.37,2013-05-24 00:56:00,
2013-05-24 03:01:00,51.8,43.4,29.65,WNW,292,2.3,2.3,73,0.00,CLR,,0.00,0.0,WeatherDisplay:10.37,2013-05-24 01:01:00,
2013-05-24 03:06:00,51.6,43.6,29.65,NNW,338,3.1,3.1,74,0.00,CLR,,0.00,0.0,WeatherDisplay:10.37,2013-05-24 01:06:00,
2013-05-24 03:11:00,51.6,43.2,29.65,WNW,292,2.3,2.3,73,0.00,CLR,,0.00,0.0,WeatherDisplay:10.37,2013-05-24 01:11:00,
2013-05-24 03:16:00,51.6,43.6,29.65,NW,315,2.3,2.3,74,0.00,CLR,,0.00,0.0,WeatherDisplay:10.37,2013-05-24 01:16:00,
2013-05-24 03:21:00,51.6,43.6,29.65,NW,315,2.3,2.3,74,0.00,CLR,,0.00,0.0,WeatherDisplay:10.37,2013-05-24 01:21:00,
2013-05-24 03:26:00,51.4,43.4,29.65,NW,315,2.3,2.3,74,0.00,CLR,,0.00,0.0,WeatherDisplay:10.37,2013-05-24 01:26:00,
2013-05-24 03:31:00,51.3,43.3,29.65,NW,315,2.3,2.3,74,0.00,CLR,,0.00,0.0,WeatherDisplay:10.37,2013-05-24 01:31:00,
2013-05-24 03:36:00,51.3,43.3,29.65,NW,315,3.5,3.5,74,0.00,CLR,,0.00,0.0,WeatherDisplay:10.37,2013-05-24 01:36:00,
2013-05-24 03:41:00,51.1,43.1,29.65,WNW,292,0.0,0.0,74,0.00,CLR,,0.00,0.0,WeatherDisplay:10.37,2013-05-24 01:41:00,
2013-05-24 03:46:00,51.1,43.4,29.65,NNW,338,2.3,2.3,75,0.00,CLR,,0.00,0.0,WeatherDisplay:10.37,2013-05-24 01:46:00,
2013-05-24 03:51:00,50.9,43.3,29.65,NNW,338,1.6,1.6,75,0.00,CLR,,0.00,0.0,WeatherDisplay:10.37,2013-05-24 01:51:00,
2013-05-24 03:56:00,50.9,43.3,29.65,NW,315,1.2,0.0,75,0.00,CLR,,0.00,0.0,WeatherDisplay:10.37,2013-05-24 01:56:00,
2013-05-24 04:01:00,50.7,43.1,29.65,NW,315,2.3,2.3,75,0.00,CLR,,0.00,0.0,WeatherDisplay:10.37,2013-05-24 02:01:00,
2013-05-24 04:06:00,50.7,43.1,29.65,NNW,338,2.3,2.3,75,0.00,CLR,,0.00,0.0,WeatherDisplay:10.37,2013-05-24 02:06:00,
2013-05-24 04:11:00,50.5,42.9,29.65,NNW,338,2.3,2.3,75,0.00,CLR,,0.00,0.0,WeatherDisplay:10.37,2013-05-24 02:11:00,
2013-05-24 04:16:00,50.5,43.3,29.68,NNW,338,2.3,2.3,76,0.00,CLR,,0.00,0.0,WeatherDisplay:10.37,2013-05-24 02:16:00,
2013-05-24 04:21:00,50.5,43.3,29.68,NNW,338,2.4,2.9,76,0.00,CLR,,0.00,0.0,WeatherDisplay:10.37,2013-05-24 02:21:00,
2013-05-24 04:26:00,50.5,43.3,29.68,NNW,338,3.5,3.5,76,0.00,OVC,,0.00,0.0,WeatherDisplay:10.37,2013-05-24 02:26:00,
2013-05-24 04:31:00,50.5,43.3,29.65,NNW,338,4.6,4.6,76,0.00,OVC,,0.00,0.0,WeatherDisplay:10.37,2013-05-24 02:31:00,
2013-05-24 04:36:00,50.5,43.6,29.65,NW,315,2.4,2.4,77,0.00,OVC,,0.00,0.0,WeatherDisplay:10.37,2013-05-24 02:36:00,
2013-05-24 04:41:00,50.5,43.6,29.65,NNW,338,2.4,2.4,77,0.00,OVC,,0.00,0.0,WeatherDisplay:10.37,2013-05-24 02:41:00,
2013-05-24 04:46:00,50.5,43.6,29.68,WNW,292,2.3,2.3,77,0.00,OVC,,0.00,0.0,WeatherDisplay:10.37,2013-05-24 02:46:00,
2013-05-24 04:51:00,50.4,43.1,29.68,NW,315,2.4,2.4,76,0.00,OVC,,0.00,0.0,WeatherDisplay:10.37,2013-05-24 02:51:00,
2013-05-24 04:56:00,50.4,43.1,29.68,NNW,338,2.9,2.9,76,0.00,OVC,,0.00,0.0,WeatherDisplay:10.37,2013-05-24 02:56:00,
2013-05-24 05:01:00,50.2,42.6,29.68,NNW,338,3.5,3.5,75,0.00,OVC,,0.00,0.0,WeatherDisplay:10.37,2013-05-24 03:01:00,
2013-05-24 05:06:00,50.2,42.6,29.68,NNW,338,2.4,0.0,75,0.00,OVC,,0.00,0.0,WeatherDisplay:10.37,2013-05-24 03:06:00,
2013-05-24 05:11:00,50.2,42.6,29.68,NNW,338,2.4,2.4,75,0.00,OVC,,0.00,1.6,WeatherDisplay:10.37,2013-05-24 03:11:00,
2013-05-24 05:16:00,50.2,42.9,29.68,NNW,338,2.3,2.3,76,0.00,OVC,,0.00,3.8,WeatherDisplay:10.37,2013-05-24 03:16:00,
2013-05-24 05:21:00,50.2,42.6,29.68,WNW,292,1.2,0.0,75,0.00,OVC,,0.00,5.9,WeatherDisplay:10.37,2013-05-24 03:21:00,
2013-05-24 05:26:00,50.2,42.6,29.68,NNW,338,2.3,2.3,75,0.00,OVC,,0.00,8.3,WeatherDisplay:10.37,2013-05-24 03:26:00,
2013-05-24 05:31:00,50.2,42.6,29.71,WNW,292,2.3,2.3,75,0.00,OVC,,0.00,10.6,WeatherDisplay:10.37,2013-05-24 03:31:00,
2013-05-24 05:36:00,50.2,42.6,29.71,NW,315,0.9,0.0,75,0.00,OVC,,0.00,12.9,WeatherDisplay:10.37,2013-05-24 03:36:00,
2013-05-24 05:41:00,50.2,42.9,29.71,North,0,2.4,2.4,76,0.00,OVC,,0.00,15.3,WeatherDisplay:10.37,2013-05-24 03:41:00,
2013-05-24 05:46:00,50.2,42.9,29.68,NNW,338,2.3,2.3,76,0.00,OVC,,0.00,17.7,WeatherDisplay:10.37,2013-05-24 03:46:00,
2013-05-24 05:51:00,50.2,42.9,29.68,NNW,338,2.4,2.4,76,0.00,OVC,,0.00,20.1,WeatherDisplay:10.37,2013-05-24 03:51:00,
2013-05-24 05:56:00,50.2,43.2,29.68,NNW,338,2.9,2.9,77,0.00,OVC,,0.00,22.6,WeatherDisplay:10.37,2013-05-24 03:56:00,
2013-05-24 06:01:00,50.2,43.2,29.65,NNE,22,2.9,2.9,77,0.00,OVC,,0.00,25.1,WeatherDisplay:10.37,2013-05-24 04:01:00,
2013-05-24 06:06:00,50.4,43.8,29.65,WNW,292,4.6,4.6,78,0.00,OVC,,0.00,27.6,WeatherDisplay:10.37,2013-05-24 04:06:00,
2013-05-24 06:11:00,50.4,43.8,29.65,NNW,338,3.5,3.5,78,0.00,OVC,,0.00,30.0,WeatherDisplay:10.37,2013-05-24 04:11:00,
2013-05-24 06:16:00,50.4,43.8,29.68,NNW,338,3.5,3.5,78,0.00,OVC,,0.00,32.7,WeatherDisplay:10.37,2013-05-24 04:16:00,
2013-05-24 06:21:00,50.4,43.8,29.68,NNW,338,2.6,2.6,78,0.00,OVC,,0.00,35.1,WeatherDisplay:10.37,2013-05-24 04:21:00,
2013-05-24 06:26:00,50.5,43.9,29.68,NNW,338,2.3,2.3,78,0.00,OVC,,0.00,37.8,WeatherDisplay:10.37,2013-05-24 04:26:00,
2013-05-24 06:31:00,50.5,43.9,29.68,NNW,338,3.5,3.5,78,0.00,OVC,,0.00,40.4,WeatherDisplay:10.37,2013-05-24 04:31:00,
2013-05-24 06:36:00,50.5,43.6,29.68,NW,315,3.5,3.5,77,0.00,OVC,,0.00,43.1,WeatherDisplay:10.37,2013-05-24 04:36:00,
2013-05-24 06:41:00,50.5,43.6,29.68,NNW,338,4.6,4.6,77,0.00,OVC,,0.00,45.9,WeatherDisplay:10.37,2013-05-24 04:41:00,
2013-05-24 06:46:00,50.7,43.8,29.68,WNW,292,3.8,3.8,77,0.00,OVC,,0.00,48.5,WeatherDisplay:10.37,2013-05-24 04:46:00,
2013-05-24 06:51:00,50.7,43.4,29.68,WNW,292,4.6,4.6,76,0.00,OVC,,0.00,51.1,WeatherDisplay:10.37,2013-05-24 04:51:00,
2013-05-24 06:56:00,50.7,43.4,29.68,NNW,338,4.6,4.6,76,0.00,OVC,,0.00,54.0,WeatherDisplay:10.37,2013-05-24 04:56:00,
2013-05-24 07:01:00,50.9,43.3,29.71,West,270,3.5,3.5,75,0.00,OVC,,0.00,56.8,WeatherDisplay:10.37,2013-05-24 05:01:00,
2013-05-24 07:06:00,51.1,43.4,29.71,NNW,338,4.6,4.6,75,0.00,OVC,,0.00,59.4,WeatherDisplay:10.37,2013-05-24 05:06:00,
2013-05-24 07:11:00,51.3,43.6,29.71,NNW,338,2.3,2.3,75,0.00,OVC,,0.00,62.2,WeatherDisplay:10.37,2013-05-24 05:11:00,
2013-05-24 07:16:00,51.4,43.8,29.68,WNW,292,3.5,3.5,75,0.00,OVC,,0.00,65.0,WeatherDisplay:10.37,2013-05-24 05:16:00,
2013-05-24 07:21:00,51.6,44.3,29.68,WNW,292,3.5,3.5,76,0.00,OVC,,0.00,67.8,WeatherDisplay:10.37,2013-05-24 05:21:00,
2013-05-24 07:26:00,52.0,44.3,29.68,WNW,292,3.3,3.3,75,0.00,OVC,,0.00,70.6,WeatherDisplay:10.37,2013-05-24 05:26:00,
2013-05-24 07:31:00,52.5,44.5,29.68,NW,315,4.6,4.6,74,0.00,OVC,,0.00,73.4,WeatherDisplay:10.37,2013-05-24 05:31:00,
2013-05-24 07:36:00,52.9,44.8,29.68,WNW,292,3.5,3.5,74,0.00,OVC,,0.00,76.2,WeatherDisplay:10.37,2013-05-24 05:36:00,
2013-05-24 07:41:00,53.1,45.0,29.68,North,0,3.5,3.5,74,0.00,OVC,,0.00,79.0,WeatherDisplay:10.37,2013-05-24 05:41:00,
2013-05-24 07:46:00,53.4,45.3,29.71,NE,45,2.4,2.4,74,0.00,OVC,,0.00,81.8,WeatherDisplay:10.37,2013-05-24 05:46:00,
2013-05-24 07:51:00,54.0,45.9,29.71,NNW,338,3.5,3.5,74,0.00,OVC,,0.00,84.6,WeatherDisplay:10.37,2013-05-24 05:51:00,
2013-05-24 07:56:00,54.3,45.8,29.71,ENE,68,3.6,3.6,73,0.00,OVC,,0.00,87.5,WeatherDisplay:10.37,2013-05-24 05:56:00,
2013-05-24 08:01:00,54.5,45.7,29.71,WNW,292,4.6,4.6,72,0.00,OVC,,0.00,90.4,WeatherDisplay:10.37,2013-05-24 06:01:00,
2013-05-24 08:06:00,54.7,46.2,29.71,NNW,338,4.6,4.6,73,0.00,OVC,,0.00,93.2,WeatherDisplay:10.37,2013-05-24 06:06:00,
2013-05-24 08:11:00,54.9,46.0,29.71,NNW,338,4.6,4.6,72,0.00,OVC,,0.00,96.0,WeatherDisplay:10.37,2013-05-24 06:11:00,
2013-05-24 08:16:00,54.9,45.6,29.71,NNW,338,3.5,3.5,71,0.00,OVC,,0.00,98.8,WeatherDisplay:10.37,2013-05-24 06:16:00,
2013-05-24 08:21:00,54.9,45.6,29.71,NNW,338,2.3,2.3,71,0.00,OVC,,0.00,101.5,WeatherDisplay:10.37,2013-05-24 06:21:00,
2013-05-24 08:26:00,54.9,46.0,29.71,WSW,248,3.5,3.6,72,0.00,OVC,,0.00,104.3,WeatherDisplay:10.37,2013-05-24 06:26:00,
2013-05-24 08:31:00,55.0,46.2,29.71,NNW,338,3.5,3.5,72,0.00,OVC,,0.00,107.1,WeatherDisplay:10.37,2013-05-24 06:31:00,
2013-05-24 08:36:00,55.0,45.8,29.71,NNE,22,3.5,3.5,71,0.00,OVC,,0.00,109.9,WeatherDisplay:10.37,2013-05-24 06:36:00,
2013-05-24 08:41:00,55.4,46.2,29.71,East,90,2.3,2.3,71,0.00,OVC,,0.00,112.5,WeatherDisplay:10.37,2013-05-24 06:41:00,
2013-05-24 08:46:00,55.4,45.8,29.71,ENE,68,2.3,2.3,70,0.00,OVC,,0.00,115.3,WeatherDisplay:10.37,2013-05-24 06:46:00,
2013-05-24 08:51:00,55.6,45.9,29.71,NNW,338,2.3,2.3,70,0.00,OVC,,0.00,118.0,WeatherDisplay:10.37,2013-05-24 06:51:00,
2013-05-24 08:56:00,55.8,46.1,29.71,NNE,22,3.5,3.5,70,0.00,OVC,,0.00,120.8,WeatherDisplay:10.37,2013-05-24 06:56:00,
2013-05-24 09:01:00,55.8,46.1,29.65,ESE,112,3.5,3.5,70,0.00,OVC,,0.00,123.4,WeatherDisplay:10.37,2013-05-24 07:01:00,
2013-05-24 09:06:00,55.9,46.3,29.65,ENE,68,3.5,3.5,70,0.00,OVC,,0.00,126.1,WeatherDisplay:10.37,2013-05-24 07:06:00,
2013-05-24 09:11:00,56.1,45.7,29.65,NW,315,2.3,2.3,68,0.00,OVC,,0.00,128.7,WeatherDisplay:10.37,2013-05-24 07:11:00,
2013-05-24 09:16:00,56.3,45.9,29.68,ENE,68,2.3,0.0,68,0.00,OVC,,0.00,131.2,WeatherDisplay:10.37,2013-05-24 07:16:00,
2013-05-24 09:21:00,56.5,46.4,29.68,NNW,338,3.5,3.5,69,0.00,OVC,,0.00,133.8,WeatherDisplay:10.37,2013-05-24 07:21:00,
2013-05-24 09:26:00,56.8,46.8,29.68,WSW,248,2.3,2.3,69,0.00,OVC,,0.00,136.3,WeatherDisplay:10.37,2013-05-24 07:26:00,
2013-05-24 09:31:00,57.2,47.1,29.71,SSW,202,3.5,3.5,69,0.00,OVC,,0.00,138.8,WeatherDisplay:10.37,2013-05-24 07:31:00,
2013-05-24 09:36:00,57.6,47.5,29.71,WSW,248,3.1,3.1,69,0.00,OVC,,0.00,141.2,WeatherDisplay:10.37,2013-05-24 07:36:00,
2013-05-24 09:41:00,57.7,47.2,29.71,NNE,22,2.3,2.3,68,0.00,OVC,,0.00,143.6,WeatherDisplay:10.37,2013-05-24 07:41:00,
2013-05-24 09:46:00,58.1,47.2,29.68,WSW,248,4.6,4.6,67,0.00,OVC,,0.00,146.0,WeatherDisplay:10.37,2013-05-24 07:46:00,
2013-05-24 09:51:00,58.1,46.8,29.68,NW,315,2.3,2.3,66,0.00,OVC,,0.00,148.3,WeatherDisplay:10.37,2013-05-24 07:51:00,
2013-05-24 09:56:00,58.5,47.5,29.68,NNE,22,1.2,1.2,67,0.00,OVC,,0.00,150.6,WeatherDisplay:10.37,2013-05-24 07:56:00,
2013-05-24 10:01:00,58.8,48.3,29.71,NNW,338,3.3,3.3,68,0.00,OVC,,0.00,153.0,WeatherDisplay:10.37,2013-05-24 08:01:00,
2013-05-24 10:06:00,59.2,47.8,29.71,NW,315,2.3,2.3,66,0.00,OVC,,0.00,155.1,WeatherDisplay:10.37,2013-05-24 08:06:00,
2013-05-24 10:11:00,59.0,47.2,29.71,WSW,248,2.9,2.9,65,0.00,OVC,,0.00,157.2,WeatherDisplay:10.37,2013-05-24 08:11:00,
2013-05-24 10:16:00,59.0,47.7,29.68,ENE,68,3.5,3.5,66,0.00,OVC,,0.00,159.4,WeatherDisplay:10.37,2013-05-24 08:16:00,
2013-05-24 10:21:00,58.8,47.5,29.68,WSW,248,5.8,5.8,66,0.00,OVC,,0.00,161.5,WeatherDisplay:10.37,2013-05-24 08:21:00,
2013-05-24 10:26:00,58.8,48.3,29.68,SSE,158,1.2,0.0,68,0.00,OVC,,0.00,163.5,WeatherDisplay:10.37,2013-05-24 08:26:00,
2013-05-24 10:31:00,58.8,47.9,29.68,WNW,292,4.6,4.6,67,0.00,OVC,,0.00,165.5,WeatherDisplay:10.37,2013-05-24 08:31:00,
2013-05-24 10:36:00,58.8,47.9,29.68,NNE,22,3.5,3.5,67,0.00,OVC,,0.00,167.3,WeatherDisplay:10.37,2013-05-24 08:36:00,
2013-05-24 10:41:00,58.8,47.9,29.68,North,0,0.0,0.0,67,0.00,OVC,,0.00,169.3,WeatherDisplay:10.37,2013-05-24 08:41:00,
2013-05-24 10:46:00,59.0,47.7,29.71,WSW,248,2.0,0.0,66,0.00,OVC,,0.00,171.1,WeatherDisplay:10.37,2013-05-24 08:46:00,
2013-05-24 10:51:00,59.0,47.7,29.71,WSW,248,1.2,0.0,66,0.00,OVC,,0.00,172.8,WeatherDisplay:10.37,2013-05-24 08:51:00,
2013-05-24 10:56:00,59.0,48.1,29.71,South,180,1.2,0.0,67,0.00,OVC,,0.00,174.4,WeatherDisplay:10.37,2013-05-24 08:56:00,
2013-05-24 11:01:00,59.2,47.4,29.68,NNW,338,1.2,1.2,65,0.00,OVC,,0.00,176.1,WeatherDisplay:10.37,2013-05-24 09:01:00,
2013-05-24 11:06:00,59.2,47.4,29.68,NNW,338,3.5,3.5,65,0.00,OVC,,0.00,177.7,WeatherDisplay:10.37,2013-05-24 09:06:00,
2013-05-24 11:11:00,59.4,48.0,29.68,WNW,292,3.5,3.5,66,0.00,OVC,,0.00,179.2,WeatherDisplay:10.37,2013-05-24 09:11:00,
2013-05-24 11:16:00,59.5,48.2,29.68,NNW,338,4.0,4.0,66,0.00,OVC,,0.00,180.7,WeatherDisplay:10.37,2013-05-24 09:16:00,
2013-05-24 11:21:00,59.7,47.9,29.68,West,270,3.8,3.8,65,0.00,OVC,,0.00,182.0,WeatherDisplay:10.37,2013-05-24 09:21:00,
2013-05-24 11:26:00,59.7,48.3,29.68,NNW,338,3.5,3.5,66,0.00,OVC,,0.00,183.3,WeatherDisplay:10.37,2013-05-24 09:26:00,
2013-05-24 11:31:00,59.7,47.9,29.68,SSW,202,2.3,2.3,65,0.00,OVC,,0.00,184.6,WeatherDisplay:10.37,2013-05-24 09:31:00,
2013-05-24 11:36:00,59.7,47.5,29.68,NNW,338,2.9,2.9,64,0.00,OVC,,0.00,185.8,WeatherDisplay:10.37,2013-05-24 09:36:00,
2013-05-24 11:41:00,59.9,47.3,29.68,WNW,292,2.0,0.0,63,0.00,OVC,,0.00,186.9,WeatherDisplay:10.37,2013-05-24 09:41:00,
2013-05-24 11:46:00,60.1,47.9,29.68,North,0,3.3,3.3,64,0.00,OVC,,0.00,187.9,WeatherDisplay:10.37,2013-05-24 09:46:00,
2013-05-24 11:51:00,60.3,48.0,29.68,NNW,338,2.3,2.3,64,0.00,OVC,,0.00,188.9,WeatherDisplay:10.37,2013-05-24 09:51:00,
2013-05-24 11:56:00,60.4,47.8,29.68,WNW,292,2.4,2.4,63,0.00,OVC,,0.00,189.8,WeatherDisplay:10.37,2013-05-24 09:56:00,
2013-05-24 12:01:00,60.6,48.4,29.65,West,270,1.2,1.2,64,0.00,OVC,,0.00,190.6,WeatherDisplay:10.37,2013-05-24 10:01:00,
2013-05-24 12:06:00,60.8,48.1,29.65,SSW,202,3.5,3.5,63,0.00,OVC,,0.00,191.4,WeatherDisplay:10.37,2013-05-24 10:06:00,
2013-05-24 12:11:00,61.3,48.6,29.65,East,90,5.8,5.8,63,0.00,OVC,,0.00,192.1,WeatherDisplay:10.37,2013-05-24 10:11:00,
2013-05-24 12:16:00,62.1,48.9,29.71,SSE,158,2.3,2.3,62,0.00,OVC,,0.00,192.7,WeatherDisplay:10.37,2013-05-24 10:16:00,
2013-05-24 12:21:00,62.4,48.8,29.71,South,180,3.5,3.5,61,0.00,OVC,,0.00,193.2,WeatherDisplay:10.37,2013-05-24 10:21:00,
2013-05-24 12:26:00,63.0,49.3,29.71,SSW,202,4.6,4.6,61,0.00,OVC,,0.00,193.7,WeatherDisplay:10.37,2013-05-24 10:26:00,
2013-05-24 12:31:00,63.5,48.9,29.68,WNW,292,5.8,5.8,59,0.00,OVC,,0.00,194.2,WeatherDisplay:10.37,2013-05-24 10:31:00,
2013-05-24 12:36:00,63.5,48.5,29.68,WNW,292,2.3,2.3,58,0.00,OVC,,0.00,194.5,WeatherDisplay:10.37,2013-05-24 10:36:00,
2013-05-24 12:41:00,63.1,46.7,29.68,East,90,4.6,4.6,55,0.00,OVC,,0.00,194.7,WeatherDisplay:10.37,2013-05-24 10:41:00,
2013-05-24 12:46:00,63.0,47.5,29.71,SSW,202,3.6,3.6,57,0.00,OVC,,0.00,194.9,WeatherDisplay:10.37,2013-05-24 10:46:00,
2013-05-24 12:51:00,62.4,47.9,29.71,NW,315,2.6,2.6,59,0.00,OVC,,0.00,195.0,WeatherDisplay:10.37,2013-05-24 10:51:00,
2013-05-24 12:56:00,62.4,48.3,29.71,West,270,2.4,2.4,60,0.00,OVC,,0.00,195.0,WeatherDisplay:10.37,2013-05-24 10:56:00,
2013-05-24 13:01:00,62.8,48.2,29.71,WNW,292,3.5,3.5,59,0.00,OVC,,0.00,195.0,WeatherDisplay:10.37,2013-05-24 11:01:00,
2013-05-24 13:06:00,63.1,48.1,29.71,NNW,338,3.6,3.6,58,0.00,OVC,,0.00,195.0,WeatherDisplay:10.37,2013-05-24 11:06:00,
2013-05-24 13:11:00,63.7,47.7,29.71,West,270,4.3,4.3,56,0.00,OVC,,0.00,194.7,WeatherDisplay:10.37,2013-05-24 11:11:00,
2013-05-24 13:16:00,64.0,47.5,29.68,SSW,202,4.6,4.6,55,0.00,OVC,,0.00,194.5,WeatherDisplay:10.37,2013-05-24 11:16:00,
2013-05-24 13:21:00,64.2,48.2,29.68,SSW,202,2.9,2.9,56,0.00,OVC,,0.00,194.2,WeatherDisplay:10.37,2013-05-24 11:21:00,
2013-05-24 13:26:00,64.2,47.2,29.68,SSW,202,3.6,3.6,54,0.00,OVC,,0.00,193.7,WeatherDisplay:10.37,2013-05-24 11:26:00,
2013-05-24 13:31:00,63.9,46.9,29.71,SSE,158,4.6,4.6,54,0.00,OVC,,0.00,193.4,WeatherDisplay:10.37,2013-05-24 11:31:00,
2013-05-24 13:36:00,64.0,48.0,29.71,NW,315,1.2,0.0,56,0.00,OVC,,0.00,192.7,WeatherDisplay:10.37,2013-05-24 11:36:00,
2013-05-24 13:41:00,63.9,47.4,29.71,SW,225,1.2,0.0,55,0.00,OVC,,0.00,192.1,WeatherDisplay:10.37,2013-05-24 11:41:00,
2013-05-24 13:46:00,63.7,47.2,29.68,SSW,202,2.4,2.4,55,0.00,OVC,,0.00,191.4,WeatherDisplay:10.37,2013-05-24 11:46:00,
2013-05-24 13:51:00,63.5,47.0,29.68,North,0,3.5,3.5,55,0.00,OVC,,0.00,190.7,WeatherDisplay:10.37,2013-05-24 11:51:00,
2013-05-24 13:56:00,63.5,47.0,29.68,East,90,2.3,2.3,55,0.00,OVC,,0.00,189.9,WeatherDisplay:10.37,2013-05-24 11:56:00,
2013-05-24 14:01:00,63.9,46.4,29.68,SW,225,6.9,6.9,53,0.00,OVC,,0.00,188.9,WeatherDisplay:10.37,2013-05-24 12:01:00,
2013-05-24 14:06:00,64.4,47.4,29.68,South,180,4.6,4.6,54,0.00,OVC,,0.00,187.9,WeatherDisplay:10.37,2013-05-24 12:06:00,
2013-05-24 14:11:00,64.8,45.7,29.68,SW,225,5.8,5.8,50,0.00,OVC,,0.00,186.9,WeatherDisplay:10.37,2013-05-24 12:11:00,
2013-05-24 14:16:00,64.6,46.0,29.68,SSE,158,3.5,3.5,51,0.00,OVC,,0.00,185.8,WeatherDisplay:10.37,2013-05-24 12:16:00,
2013-05-24 14:21:00,64.6,47.1,29.68,SW,225,3.5,3.5,53,0.00,OVC,,0.00,184.6,WeatherDisplay:10.37,2013-05-24 12:21:00,
2013-05-24 14:26:00,64.2,46.7,29.68,SSW,202,3.5,3.5,53,0.00,OVC,,0.00,183.3,WeatherDisplay:10.37,2013-05-24 12:26:00,
2013-05-24 14:31:00,64.0,45.5,29.68,SW,225,7.8,7.8,51,0.00,OVC,,0.00,182.0,WeatherDisplay:10.37,2013-05-24 12:31:00,
2013-05-24 14:36:00,64.6,46.0,29.68,WSW,248,5.8,5.8,51,0.00,OVC,,0.00,180.7,WeatherDisplay:10.37,2013-05-24 12:36:00,
2013-05-24 14:41:00,65.8,46.7,29.68,SSW,202,9.2,9.2,50,0.00,OVC,,0.00,179.2,WeatherDisplay:10.37,2013-05-24 12:41:00,
2013-05-24 14:46:00,66.7,46.4,29.71,SSW,202,5.8,5.8,48,0.00,OVC,,0.00,177.7,WeatherDisplay:10.37,2013-05-24 12:46:00,
2013-05-24 14:51:00,66.9,46.6,29.71,SSW,202,5.9,5.9,48,0.00,OVC,,0.00,176.2,WeatherDisplay:10.37,2013-05-24 12:51:00,
2013-05-24 14:56:00,66.0,44.6,29.71,WSW,248,8.5,8.5,46,0.00,OVC,,0.00,174.6,WeatherDisplay:10.37,2013-05-24 12:56:00,
2013-05-24 15:01:00,65.8,47.2,29.65,SSW,202,3.5,3.5,51,0.00,OVC,,0.00,172.9,WeatherDisplay:10.37,2013-05-24 13:01:00,
2013-05-24 15:06:00,66.0,46.3,29.65,WSW,248,4.6,4.6,49,0.00,OVC,,0.00,171.1,WeatherDisplay:10.37,2013-05-24 13:06:00,
2013-05-24 15:11:00,66.4,47.2,29.65,WNW,292,5.8,5.8,50,0.00,OVC,,0.00,169.3,WeatherDisplay:10.37,2013-05-24 13:11:00,
2013-05-24 15:16:00,66.7,45.9,29.65,WNW,292,5.8,5.8,47,0.00,OVC,,0.00,167.5,WeatherDisplay:10.37,2013-05-24 13:16:00,
2013-05-24 15:21:00,66.6,46.3,29.65,SSW,202,4.6,4.6,48,0.00,OVC,,0.00,165.5,WeatherDisplay:10.37,2013-05-24 13:21:00,
2013-05-24 15:26:00,66.6,45.7,29.65,WSW,248,5.8,5.8,47,0.00,OVC,,0.00,163.5,WeatherDisplay:10.37,2013-05-24 13:26:00,
2013-05-24 15:31:00,66.7,45.9,29.71,SSW,202,4.6,4.6,47,0.00,OVC,,0.00,161.5,WeatherDisplay:10.37,2013-05-24 13:31:00,
2013-05-24 15:36:00,67.6,48.3,29.71,WNW,292,4.6,4.6,50,0.00,OVC,,0.00,159.6,WeatherDisplay:10.37,2013-05-24 13:36:00,
2013-05-24 15:41:00,66.7,45.9,29.71,WSW,248,6.9,6.9,47,0.00,OVC,,0.00,157.4,WeatherDisplay:10.37,2013-05-24 13:41:00,
2013-05-24 15:46:00,66.0,46.8,29.65,WNW,292,3.5,3.5,50,0.00,OVC,,0.00,155.3,WeatherDisplay:10.37,2013-05-24 13:46:00,
2013-05-24 15:51:00,65.5,46.9,29.65,WNW,292,4.6,4.6,51,0.00,OVC,,0.00,153.0,WeatherDisplay:10.37,2013-05-24 13:51:00,
2013-05-24 15:56:00,65.1,47.1,29.65,NNW,338,4.0,4.0,52,0.00,OVC,,0.00,150.8,WeatherDisplay:10.37,2013-05-24 13:56:00,
2013-05-24 16:01:00,64.4,46.4,29.65,WSW,248,5.8,5.8,52,0.00,OVC,,0.00,148.5,WeatherDisplay:10.37,2013-05-24 14:01:00,
2013-05-24 16:06:00,64.2,47.2,29.65,NW,315,4.6,4.6,54,0.00,OVC,,0.00,146.2,WeatherDisplay:10.37,2013-05-24 14:06:00,
2013-05-24 16:11:00,63.9,45.9,29.65,WNW,292,4.6,4.6,52,0.00,OVC,,0.00,143.7,WeatherDisplay:10.37,2013-05-24 14:11:00,
2013-05-24 16:16:00,63.7,47.2,29.65,WSW,248,2.6,2.6,55,0.00,OVC,,0.00,141.4,WeatherDisplay:10.37,2013-05-24 14:16:00,
2013-05-24 16:21:00,63.3,46.9,29.65,WNW,292,2.3,2.6,55,0.00,OVC,,0.00,138.9,WeatherDisplay:10.37,2013-05-24 14:21:00,
2013-05-24 16:26:00,63.1,47.2,29.65,NNW,338,2.4,2.4,56,0.00,OVC,,0.00,136.5,WeatherDisplay:10.37,2013-05-24 14:26:00,
2013-05-24 16:31:00,63.1,47.2,29.65,NNW,338,3.5,3.5,56,0.00,OVC,,0.00,133.8,WeatherDisplay:10.37,2013-05-24 14:31:00,
2013-05-24 16:36:00,63.0,46.5,29.65,West,270,3.5,3.5,55,0.00,OVC,,0.00,131.3,WeatherDisplay:10.37,2013-05-24 14:36:00,
2013-05-24 16:41:00,63.0,47.0,29.65,West,270,3.8,3.8,56,0.00,OVC,,0.00,128.7,WeatherDisplay:10.37,2013-05-24 14:41:00,
2013-05-24 16:46:00,62.6,46.2,29.68,WNW,292,4.6,4.6,55,0.00,OVC,,0.00,126.2,WeatherDisplay:10.37,2013-05-24 14:46:00,
2013-05-24 16:51:00,62.4,47.4,29.68,WNW,292,3.3,3.3,58,0.00,OVC,,0.00,123.6,WeatherDisplay:10.37,2013-05-24 14:51:00,
2013-05-24 16:56:00,62.4,47.4,29.68,NNW,338,5.8,5.8,58,0.00,OVC,,0.00,120.8,WeatherDisplay:10.37,2013-05-24 14:56:00,
2013-05-24 17:01:00,62.2,46.8,29.68,NNW,338,4.6,4.6,57,0.00,OVC,,0.00,118.1,WeatherDisplay:10.37,2013-05-24 15:01:00,
2013-05-24 17:06:00,62.2,46.3,29.68,WNW,292,4.6,4.6,56,0.00,OVC,,0.00,115.5,WeatherDisplay:10.37,2013-05-24 15:06:00,
2013-05-24 17:11:00,62.1,46.6,29.68,West,270,4.0,4.0,57,0.00,OVC,,0.00,112.7,WeatherDisplay:10.37,2013-05-24 15:11:00,
2013-05-24 17:16:00,62.1,46.6,29.68,WNW,292,5.8,5.8,57,0.00,OVC,,0.00,110.1,WeatherDisplay:10.37,2013-05-24 15:16:00,
2013-05-24 17:21:00,62.1,46.6,29.68,WSW,248,3.5,3.5,57,0.00,OVC,,0.00,107.3,WeatherDisplay:10.37,2013-05-24 15:21:00,
2013-05-24 17:26:00,62.1,46.6,29.68,WSW,248,5.9,5.9,57,0.00,OVC,,0.00,104.4,WeatherDisplay:10.37,2013-05-24 15:26:00,
2013-05-24 17:31:00,61.9,46.5,29.68,West,270,3.8,3.8,57,0.00,OVC,,0.00,101.8,WeatherDisplay:10.37,2013-05-24 15:31:00,
2013-05-24 17:36:00,61.9,46.5,29.68,West,270,3.6,3.6,57,0.00,OVC,,0.00,99.0,WeatherDisplay:10.37,2013-05-24 15:36:00,
2013-05-24 17:41:00,61.9,46.5,29.68,NW,315,5.8,5.8,57,0.00,OVC,,0.00,96.2,WeatherDisplay:10.37,2013-05-24 15:41:00,
2013-05-24 17:46:00,61.9,46.9,29.68,WNW,292,3.6,3.6,58,0.00,OVC,,0.00,93.4,WeatherDisplay:10.37,2013-05-24 15:46:00,
2013-05-24 17:51:00,61.9,46.9,29.68,WNW,292,5.8,5.8,58,0.00,OVC,,0.00,90.6,WeatherDisplay:10.37,2013-05-24 15:51:00,
2013-05-24 17:56:00,62.1,46.6,29.68,WNW,292,5.8,5.8,57,0.00,OVC,,0.00,87.8,WeatherDisplay:10.37,2013-05-24 15:56:00,
2013-05-24 18:01:00,61.9,46.9,29.68,NNW,338,6.9,6.9,58,0.00,OVC,,0.00,85.0,WeatherDisplay:10.37,2013-05-24 16:01:00,
2013-05-24 18:06:00,61.9,46.9,29.68,WSW,248,5.8,5.8,58,0.00,OVC,,0.00,82.0,WeatherDisplay:10.37,2013-05-24 16:06:00,
2013-05-24 18:11:00,61.9,46.9,29.68,WNW,292,6.9,6.9,58,0.00,OVC,,0.00,79.2,WeatherDisplay:10.37,2013-05-24 16:11:00,
2013-05-24 18:16:00,61.9,46.9,29.71,NW,315,3.5,3.5,58,0.00,OVC,,0.00,76.4,WeatherDisplay:10.37,2013-05-24 16:16:00,
2013-05-24 18:21:00,61.7,46.8,29.71,WNW,292,5.8,5.8,58,0.00,OVC,,0.00,73.6,WeatherDisplay:10.37,2013-05-24 16:21:00,
2013-05-24 18:26:00,61.3,46.4,29.71,WNW,292,4.6,4.6,58,0.00,OVC,,0.00,70.8,WeatherDisplay:10.37,2013-05-24 16:26:00,
2013-05-24 18:31:00,61.0,46.1,29.68,NNW,338,3.5,3.5,58,0.00,OVC,,0.00,68.0,WeatherDisplay:10.37,2013-05-24 16:31:00,
2013-05-24 18:36:00,60.8,45.9,29.68,WNW,292,4.6,4.6,58,0.00,OVC,,0.00,65.2,WeatherDisplay:10.37,2013-05-24 16:36:00,
2013-05-24 18:41:00,60.4,46.0,29.68,WNW,292,5.8,5.8,59,0.00,OVC,,0.00,62.4,WeatherDisplay:10.37,2013-05-24 16:41:00,
2013-05-24 18:46:00,59.9,45.5,29.74,WNW,292,6.9,6.9,59,0.00,OVC,,0.00,59.7,WeatherDisplay:10.37,2013-05-24 16:46:00,
2013-05-24 18:51:00,59.5,45.2,29.74,NW,315,3.5,4.0,59,0.00,OVC,,0.00,56.9,WeatherDisplay:10.37,2013-05-24 16:51:00,
2013-05-24 18:56:00,59.4,45.5,29.74,NW,315,3.5,3.5,60,0.00,OVC,,0.00,54.1,WeatherDisplay:10.37,2013-05-24 16:56:00,
2013-05-24 19:01:00,59.2,45.3,29.74,NNW,338,3.5,3.5,60,0.00,OVC,,0.00,51.5,WeatherDisplay:10.37,2013-05-24 17:01:00,
2013-05-24 19:06:00,59.0,45.1,29.74,WNW,292,4.6,4.6,60,0.00,OVC,,0.00,48.7,WeatherDisplay:10.37,2013-05-24 17:06:00,
2013-05-24 19:11:00,58.8,45.4,29.74,NNW,338,4.6,4.6,61,0.00,OVC,,0.00,46.0,WeatherDisplay:10.37,2013-05-24 17:11:00,
2013-05-24 19:16:00,58.8,45.4,29.74,NNW,338,2.3,2.3,61,0.00,OVC,,0.00,43.4,WeatherDisplay:10.37,2013-05-24 17:16:00,
2013-05-24 19:21:00,58.6,45.7,29.74,WNW,292,2.3,2.3,62,0.00,OVC,,0.00,40.8,WeatherDisplay:10.37,2013-05-24 17:21:00,
2013-05-24 19:26:00,58.5,45.9,29.74,WNW,292,3.5,3.5,63,0.00,OVC,,0.00,38.1,WeatherDisplay:10.37,2013-05-24 17:26:00,
2013-05-24 19:31:00,58.3,45.7,29.71,NNW,338,1.2,1.6,63,0.00,OVC,,0.00,35.5,WeatherDisplay:10.37,2013-05-24 17:31:00,
2013-05-24 19:36:00,58.3,45.7,29.71,WNW,292,2.4,2.4,63,0.00,OVC,,0.00,32.8,WeatherDisplay:10.37,2013-05-24 17:36:00,
2013-05-24 19:41:00,58.1,45.6,29.71,North,0,3.5,3.5,63,0.00,OVC,,0.00,30.4,WeatherDisplay:10.37,2013-05-24 17:41:00,
2013-05-24 19:46:00,57.9,45.4,29.74,NW,315,4.6,4.6,63,0.00,OVC,,0.00,27.7,WeatherDisplay:10.37,2013-05-24 17:46:00,
2013-05-24 19:51:00,57.9,45.4,29.74,WNW,292,3.5,3.5,63,0.00,OVC,,0.00,25.2,WeatherDisplay:10.37,2013-05-24 17:51:00,
2013-05-24 19:56:00,57.7,45.6,29.74,NNW,338,2.6,2.6,64,0.00,OVC,,0.00,22.8,WeatherDisplay:10.37,2013-05-24 17:56:00,
2013-05-24 20:01:00,57.6,45.5,29.74,WNW,292,2.9,2.9,64,0.00,OVC,,0.00,20.5,WeatherDisplay:10.37,2013-05-24 18:01:00,
2013-05-24 20:06:00,57.6,45.9,29.74,NW,315,2.6,2.6,65,0.00,OVC,,0.00,18.0,WeatherDisplay:10.37,2013-05-24 18:06:00,
2013-05-24 20:11:00,57.2,45.1,29.74,NNW,338,2.2,2.2,64,0.00,OVC,,0.00,15.5,WeatherDisplay:10.37,2013-05-24 18:11:00,
2013-05-24 20:16:00,57.2,45.5,29.74,WNW,292,2.3,0.0,65,0.00,OVC,,0.00,13.2,WeatherDisplay:10.37,2013-05-24 18:16:00,
2013-05-24 20:21:00,57.0,45.4,29.74,West,270,2.3,2.3,65,0.00,OVC,,0.00,10.9,WeatherDisplay:10.37,2013-05-24 18:21:00,
2013-05-24 20:26:00,56.8,45.6,29.74,WNW,292,2.3,2.3,66,0.00,OVC,,0.00,8.6,WeatherDisplay:10.37,2013-05-24 18:26:00,
2013-05-24 20:31:00,56.7,45.4,29.74,WNW,292,2.3,2.3,66,0.00,OVC,,0.00,6.3,WeatherDisplay:10.37,2013-05-24 18:31:00,
2013-05-24 20:36:00,56.7,45.4,29.74,WNW,292,2.3,2.3,66,0.00,OVC,,0.00,4.1,WeatherDisplay:10.37,2013-05-24 18:36:00,
2013-05-24 20:41:00,56.5,45.3,29.74,NNW,338,2.4,2.4,66,0.00,OVC,,0.00,2.0,WeatherDisplay:10.37,2013-05-24 18:41:00,
2013-05-24 20:46:00,56.3,45.1,29.74,WNW,292,2.4,2.4,66,0.00,OVC,,0.00,0.7,WeatherDisplay:10.37,2013-05-24 18:46:00,
2013-05-24 20:51:00,56.3,45.5,29.74,WNW,292,3.5,0.0,67,0.00,OVC,,0.00,0.7,WeatherDisplay:10.37,2013-05-24 18:51:00,
2013-05-24 20:56:00,56.1,45.3,29.74,NNW,338,2.3,2.3,67,0.00,CLR,,0.00,0.0,WeatherDisplay:10.37,2013-05-24 18:56:00,
2013-05-24 21:01:00,55.9,45.1,29.74,NNW,338,2.3,2.3,67,0.00,CLR,,0.00,0.0,WeatherDisplay:10.37,2013-05-24 19:01:00,
2013-05-24 21:06:00,55.6,45.2,29.74,WNW,292,2.6,2.6,68,0.00,CLR,,0.00,0.0,WeatherDisplay:10.37,2013-05-24 19:06:00,
2013-05-24 21:11:00,55.4,44.6,29.74,NNW,338,2.3,0.0,67,0.00,CLR,,0.00,0.0,WeatherDisplay:10.37,2013-05-24 19:11:00,
2013-05-24 21:16:00,55.0,44.7,29.77,WNW,292,0.0,0.0,68,0.00,CLR,,0.00,0.0,WeatherDisplay:10.37,2013-05-24 19:16:00,
2013-05-24 21:21:00,54.9,44.5,29.77,WNW,292,0.0,0.0,68,0.00,CLR,,0.00,0.0,WeatherDisplay:10.37,2013-05-24 19:21:00,
2013-05-24 21:26:00,54.5,44.5,29.77,WNW,292,0.0,0.0,69,0.00,CLR,,0.00,0.0,WeatherDisplay:10.37,2013-05-24 19:26:00,
2013-05-24 21:31:00,54.1,44.2,29.74,WNW,292,0.0,0.0,69,0.00,CLR,,0.00,0.0,WeatherDisplay:10.37,2013-05-24 19:31:00,
2013-05-24 21:36:00,53.8,43.8,29.74,WNW,292,0.0,0.0,69,0.00,CLR,,0.00,0.0,WeatherDisplay:10.37,2013-05-24 19:36:00,
2013-05-24 21:41:00,53.4,43.9,29.74,NNW,338,1.6,0.0,70,0.00,CLR,,0.00,0.0,WeatherDisplay:10.37,2013-05-24 19:41:00,
2013-05-24 21:46:00,53.2,44.1,29.77,NNW,338,0.0,0.0,71,0.00,CLR,,0.00,0.0,WeatherDisplay:10.37,2013-05-24 19:46:00,
2013-05-24 21:51:00,52.9,43.7,29.77,NW,315,1.2,1.2,71,0.00,CLR,,0.00,0.0,WeatherDisplay:10.37,2013-05-24 19:51:00,
2013-05-24 21:56:00,52.5,43.8,29.77,NW,315,0.0,0.0,72,0.00,CLR,,0.00,0.0,WeatherDisplay:10.37,2013-05-24 19:56:00,
2013-05-24 22:01:00,52.3,43.6,29.77,NW,315,0.0,0.0,72,0.00,CLR,,0.00,0.0,WeatherDisplay:10.37,2013-05-24 20:01:00,
2013-05-24 22:06:00,52.2,43.4,29.77,NW,315,0.0,0.0,72,0.00,CLR,,0.00,0.0,WeatherDisplay:10.37,2013-05-24 20:06:00,
2013-05-24 22:11:00,52.0,43.2,29.77,NW,315,0.0,0.0,72,0.00,CLR,,0.00,0.0,WeatherDisplay:10.37,2013-05-24 20:11:00,
2013-05-24 22:16:00,52.0,43.6,29.77,NW,315,0.0,0.0,73,0.00,CLR,,0.00,0.0,WeatherDisplay:10.37,2013-05-24 20:16:00,
2013-05-24 22:21:00,52.0,43.6,29.77,NW,315,0.0,0.0,73,0.00,CLR,,0.00,0.0,WeatherDisplay:10.37,2013-05-24 20:21:00,
2013-05-24 22:26:00,52.0,43.9,29.77,NW,315,0.0,0.0,74,0.00,CLR,,0.00,0.0,WeatherDisplay:10.37,2013-05-24 20:26:00,
2013-05-24 22:31:00,52.0,43.9,29.74,West,270,0.0,0.0,74,0.00,CLR,,0.00,0.0,WeatherDisplay:10.37,2013-05-24 20:31:00,
2013-05-24 22:36:00,52.0,43.9,29.74,West,270,0.0,0.0,74,0.00,CLR,,0.00,0.0,WeatherDisplay:10.37,2013-05-24 20:36:00,
2013-05-24 22:41:00,52.0,44.3,29.74,WNW,292,0.0,0.0,75,0.00,CLR,,0.00,0.0,WeatherDisplay:10.37,2013-05-24 20:41:00,
2013-05-24 22:46:00,52.0,44.3,29.71,NNW,338,0.0,0.0,75,0.00,CLR,,0.00,0.0,WeatherDisplay:10.37,2013-05-24 20:46:00,
2013-05-24 22:51:00,52.0,44.3,29.71,NNW,338,0.0,0.0,75,0.00,CLR,,0.00,0.0,WeatherDisplay:10.37,2013-05-24 20:51:00,
2013-05-24 22:56:00,51.8,44.1,29.71,NNW,338,0.0,0.0,75,0.00,CLR,,0.00,0.0,WeatherDisplay:10.37,2013-05-24 20:56:00,
2013-05-24 23:01:00,51.8,44.1,29.71,NNW,338,0.0,0.0,75,0.00,CLR,,0.00,0.0,WeatherDisplay:10.37,2013-05-24 21:01:00,
2013-05-24 23:06:00,51.6,44.3,29.71,NNW,338,0.0,0.0,76,0.00,CLR,,0.00,0.0,WeatherDisplay:10.37,2013-05-24 21:06:00,
2013-05-24 23:11:00,51.6,44.3,29.71,NNW,338,0.0,0.0,76,0.00,CLR,,0.00,0.0,WeatherDisplay:10.37,2013-05-24 21:11:00,
2013-05-24 23:16:00,51.4,44.1,29.74,WNW,292,0.0,0.0,76,0.00,CLR,,0.00,0.0,WeatherDisplay:10.37,2013-05-24 21:16:00,
2013-05-24 23:21:00,51.3,44.0,29.74,WNW,292,0.0,0.0,76,0.00,CLR,,0.00,0.0,WeatherDisplay:10.37,2013-05-24 21:21:00,
2013-05-24 23:26:00,51.1,43.8,29.74,WNW,292,0.0,0.0,76,0.00,CLR,,0.00,0.0,WeatherDisplay:10.37,2013-05-24 21:26:00,
2013-05-24 23:31:00,50.9,43.9,29.74,West,270,2.3,2.3,77,0.00,CLR,,0.00,0.0,WeatherDisplay:10.37,2013-05-24 21:31:00,
2013-05-24 23:36:00,50.7,43.8,29.74,WNW,292,1.2,1.4,77,0.00,CLR,,0.00,0.0,WeatherDisplay:10.37,2013-05-24 21:36:00,
2013-05-24 23:41:00,50.5,43.9,29.74,West,270,0.0,0.0,78,0.00,CLR,,0.00,0.0,WeatherDisplay:10.37,2013-05-24 21:41:00,
2013-05-24 23:46:00,50.4,43.8,29.74,WNW,292,1.6,1.6,78,0.00,CLR,,0.00,0.0,WeatherDisplay:10.37,2013-05-24 21:46:00,
2013-05-24 23:51:00,50.4,43.8,29.74,WNW,292,1.2,1.2,78,0.00,CLR,,0.00,0.0,WeatherDisplay:10.37,2013-05-24 21:51:00,
2013-05-24 23:56:00,50.2,43.6,29.74,NNW,338,0.0,0.0,78,0.00,CLR,,0.00,0.0,WeatherDisplay:10.37,2013-05-24 21:56:00,